Home > Weather > Pretoria > Past weeks

Flag for South Africa Past Weather in Pretoria, South Africa — Yesterday and Last 2 Weeks

Now
46 °F

Cool.


Feels Like: 46 °F
Forecast: 38 / 70 °F
Wind: 1 mph from Northwest

Location: Waterkloof Lmb

Current Time: May 31, 2016 at 6:09:23 AM

Latest Report: May 31, 2016 at 5:00 AM


Visibility: N/A

Pressure: 30.36 "Hg (25.80 "Hg at 1338m altitude)

Humidity: 62%

Dew Point: 34 °F

Location of PretoriaLocation

Past Weather in Pretoria — Graph

°F

Pretoria Temperature Yesterday

Maximum temperature yesterday: 70 °F (at 3:00 PM)
Minimum temperature yesterday: 41 °F (at 5:00 AM)
Average temperature yesterday: 54 °F

High & Low Weather Summary for the Past Weeks

 TemperatureHumidityPressure
High72 °F (May 20, 2:00 PM)94% (May 17, 2:00 AM)30.60 "Hg (May 17, 2:00 AM)
Low41 °F (May 24, 7:00 AM)25% (May 25, 3:00 PM)30.30 "Hg (May 25, 3:00 PM)
Average56 °F61%30.43 "Hg
* Reported May 16 5:00 AM — May 31 4:00 AM, Pretoria, Weather by CustomWeather, © 2016

Note: Actual official high and low records may vary slightly from our data, if they occured in-between our weather recording intervals... More about our weather records

Advertising

Pretoria Weather History for the Previous 24 Hours

Scroll right to see more
 ConditionsComfort  
Time TempWeatherWind HumidityBarometerVisibility
4:00 AM
Tue, May 31
45 °FQuite cool.No wind61%30.36 "HgN/A
3:00 AM43 °FQuite cool.2 mph76%30.36 "HgN/A
2:00 AM45 °FQuite cool.3 mph66%30.36 "HgN/A
1:00 AM43 °FQuite cool.3 mph76%30.36 "HgN/A
12:00 AM46 °FCool.2 mph71%30.36 "HgN/A
11:00 PM
Mon, May 30
46 °FCool.No wind71%30.36 "HgN/A
10:00 PM48 °FCool.No wind62%30.36 "HgN/A
9:00 PM50 °FCool.No wind62%30.36 "HgN/A
8:00 PM54 °FCool.No wind51%30.36 "HgN/A
7:00 PM54 °FCool.2 mph51%30.36 "HgN/A
6:00 PM59 °FRefreshingly cool.6 mph39%30.33 "HgN/A
5:00 PM64 °FMild.6 mph32%30.33 "HgN/A
4:00 PM68 °FMild.5 mph26%30.30 "HgN/A
3:00 PM70 °FMild.2 mph25%30.30 "HgN/A
2:00 PM68 °FMild.3 mph26%30.33 "HgN/A
1:00 PM66 °FMild.8 mph28%30.33 "HgN/A
12:00 PM66 °FMild.3 mph28%30.36 "HgN/A
11:00 AM64 °FMild.2 mph30%30.39 "HgN/A
10:00 AM63 °FMild.1 mph34%30.42 "HgN/A
9:00 AM57 °FRefreshingly cool.1 mph44%30.39 "HgN/A
8:00 AM50 °FCool.2 mph58%30.39 "HgN/A
7:00 AM43 °FQuite cool.3 mph66%30.36 "HgN/A
6:00 AM41 °FQuite cool.2 mph70%30.36 "HgN/A
Weather by CustomWeather, © 2016

See weather overviewHow to use our weather pages